Flag for Austria Weather past 2 weeks in Güssing, Burgenland, Austria

Now
63 °F

Mild.


Feels Like: 63 °F
Forecast: 46 / 73 °F
Wind: 2 mph from Southeast

Location: Murska Sobota

Current Time: May 28, 2015 at 8:28:56 PM

Latest Report: May 28, 2015 at 7:00 PM


Visibility: N/A

Pressure: 30.03 "Hg

Humidity: 51%

Dew point: 44 °F

Location of GüssingLocation

Historic Weather in Güssing — Graph

°F

Güssing temperature yesterday

Maximum temperature yesterday: 63 °F (at 3:00 PM)
Minimum temperature yesterday: 53 °F (at 11:00 PM)
Average temperature yesterday: 57 °F

Past Weeks' High & Low Weather Summary

 TemperatureHumidityPressure
High82 °F (May 19, 4:00 PM)99% (May 17, 5:00 AM)30.22 "Hg (May 17, 5:00 AM)
Low47 °F (May 28, 5:00 AM)40% (May 19, 4:00 PM)29.69 "Hg (May 19, 5:00 PM)
Average59 °F80%29.96 "Hg
* Reported May 13 8:00 PM — May 28 7:00 PM, Güssing, Weather by CustomWeather, © 2015

Note: Actual official high and low records may vary slightly from our data, if they occured in-between our weather recording intervals... More about our weather records

Advertising

Güssing weather history for previous 24 hours

 ConditionsComfort  
Time TempWeatherWind HumidityBarometerVisibility
7:00 PM
Thu, May 28
63 °FMild.2 mph51%30.03 "HgN/A
6:00 PM64 °FMild.2 mph49%30.03 "HgN/A
5:00 PM64 °FMild.1 mph46%30.04 "HgN/A
4:00 PM64 °FMild.2 mph47%30.06 "HgN/A
3:00 PM63 °FScattered clouds.2 mph51%30.07 "Hg31 mi
2:00 PM62 °FScattered clouds.2 mph51%30.09 "Hg31 mi
11:00 AM59 °FRefreshingly cool.3 mph50%30.12 "HgN/A
8:00 AM54 °FPartly sunny.2 mph64%30.13 "Hg25 mi
5:00 AM47 °FCool.1 mph74%30.11 "HgN/A
2:00 AM52 °FCool.3 mph57%30.12 "HgN/A
1:00 AM53 °FCool.3 mph59%30.13 "HgN/A
12:00 AM54 °FCool.3 mph64%30.13 "HgN/A
11:00 PM
Wed, May 27
53 °FCool.1 mph68%30.13 "HgN/A
10:00 PM53 °FCool.2 mph67%30.11 "HgN/A
9:00 PM54 °FCool.1 mph69%30.10 "HgN/A
8:00 PM56 °FPartly sunny.1 mph72%30.08 "Hg31 mi
Weather by CustomWeather, © 2015

See weather overviewHow to use our weather pages